Glasgow, United Kingdom

10:40 PM BST on July 25, 2017 (GMT +0100)
Glasgow

Weather History for EGPF - March, 2011

Change the Weather History Date:

Wednesday, March 9, 2011

  Actual Average Record
Temperature  
Mean Temperature 40 °F -  
Max Temperature 46 °F 48 °F 53 °F (2012)
Min Temperature 33 °F 35 °F 21 °F (2004)
Degree Days  
Heating Degree Days 26    
Moisture  
Dew Point 36 °F    
Average Humidity 84    
Maximum Humidity 93    
Minimum Humidity 71    
Precipitation  
Precipitation 0.00 in - - ()
Sea Level Pressure  
Sea Level Pressure 29.61 in    
Wind  
Wind Speed 14 mph ()    
Max Wind Speed 26 mph    
Max Gust Speed 39 mph    
Visibility 5.9 miles    
Events Rain , Snow    
Averages and records for this station are not official NWS values.
T = Trace of Precipitation, MM = Missing Value Source: Averaged Metar Reports

Daily Weather History Graph

Daily Weather History Graph

Search for Another Location

Airport or City:

Trip Planner

Search our weather history database for the weather conditions in past years. The results will help you decide how hot, cold, wet, or windy it might be!

Date:

Astronomy

Mar. 09, 2011 Rise Set
Actual Time 6:49 AM GMT 6:08 PM GMT
Civil Twilight 6:12 AM GMT 6:45 PM GMT
Nautical Twilight 5:29 AM GMT 7:28 PM GMT
Astronomical Twilight 4:45 AM GMT 8:12 PM GMT
Moon 7:32 AM GMT (3/9) No Moon Set
Length of Visible Light 12h 32m
Length of Day
11h 18m
Waxing Crescent, 18% of the Moon is Illuminated
Mar 9
Waxing Crescent
Mar 12
First Quarter
Mar 19
Full
Mar 26
Last Quarter
Apr 3
New

Hourly Weather History & Observations

Time (GMT) Temp. Windchill Dew Point Humidity Pressure Visibility Wind Dir Wind Speed Gust Speed Precip Events Conditions
12:20 AM 37.4 °F 29.8 °F 33.8 °F 87% 29.62 in 6.2 mi WSW 11.5 mph - N/A   Drizzle
12:50 AM 35.6 °F 25.9 °F 33.8 °F 93% 29.59 in 6.2 mi WSW 16.1 mph - N/A Rain Light Rain
1:20 AM 37.4 °F 29.3 °F 33.8 °F 87% 29.59 in 6.2 mi West 12.7 mph - N/A Rain Light Rain
1:50 AM 37.4 °F 30.3 °F 33.8 °F 87% 29.59 in 6.2 mi West 10.4 mph - N/A   Partly Cloudy
2:20 AM 37.4 °F 27.2 °F 33.8 °F 87% 29.59 in 5.6 mi WSW 19.6 mph - N/A Rain Light Rain
2:50 AM 37.4 °F 27.8 °F 33.8 °F 87% 29.59 in 6.2 mi West 17.3 mph - N/A Rain Light Rain
3:20 AM 35.6 °F 27.1 °F 32.0 °F 87% 29.56 in 6.2 mi West 12.7 mph - N/A   Partly Cloudy
3:50 AM 33.8 °F 23.5 °F 32.0 °F 93% 29.59 in 5.0 mi West 16.1 mph - N/A Rain Light Rain
4:20 AM 35.6 °F 26.6 °F 33.8 °F 93% 29.59 in 6.2 mi West 13.8 mph - N/A   Mostly Cloudy
4:50 AM 35.6 °F 26.2 °F 32.0 °F 87% 29.59 in 6.2 mi West 15.0 mph - N/A   Partly Cloudy
5:20 AM 35.6 °F 27.5 °F 32.0 °F 87% 29.59 in 6.2 mi West 11.5 mph - N/A   Mostly Cloudy
5:50 AM 33.8 °F 23.5 °F 32.0 °F 93% 29.62 in 6.2 mi WNW 16.1 mph - N/A Rain Light Rain
6:20 AM 35.6 °F 25.5 °F 30.2 °F 81% 29.62 in 6.2 mi West 17.3 mph 28.8 mph N/A Rain , Snow Light Rain
6:50 AM 35.6 °F 26.2 °F 30.2 °F 81% 29.62 in 6.2 mi West 15.0 mph - N/A   Scattered Clouds
7:20 AM 35.6 °F 27.1 °F 30.2 °F 81% 29.65 in 6.2 mi West 12.7 mph - N/A   Scattered Clouds
7:50 AM 35.6 °F 25.2 °F 30.2 °F 81% 29.65 in 6.2 mi West 18.4 mph - N/A   Scattered Clouds
8:20 AM 37.4 °F 27.8 °F 32.0 °F 81% 29.65 in 6.2 mi West 17.3 mph - N/A   Scattered Clouds
8:50 AM 39.2 °F 30.5 °F 32.0 °F 75% 29.68 in 6.2 mi West 16.1 mph - N/A   Scattered Clouds
9:20 AM 39.2 °F 30.2 °F 32.0 °F 75% 29.68 in 6.2 mi West 17.3 mph - N/A   Scattered Clouds
9:50 AM 39.2 °F 29.8 °F 32.0 °F 75% 29.68 in 4.3 mi WSW 18.4 mph - N/A Rain Light Rain Showers
10:20 AM 41.0 °F 33.9 °F 35.6 °F 81% 29.71 in 6.2 mi West 12.7 mph - N/A   Scattered Clouds
10:50 AM 39.2 °F 30.2 °F 33.8 °F 81% 29.71 in 6.2 mi West 17.3 mph - N/A   Mostly Cloudy
11:20 AM 41.0 °F 32.2 °F 35.6 °F 81% 29.71 in 6.2 mi West 18.4 mph - N/A   Scattered Clouds
11:50 AM 41.0 °F 32.5 °F 33.8 °F 76% 29.71 in 6.2 mi West 17.3 mph - N/A Rain Light Rain Showers
12:20 PM 41.0 °F 33.1 °F 35.6 °F 81% 29.71 in 6.2 mi West 15.0 mph - N/A   Scattered Clouds
12:50 PM 42.8 °F 34.0 °F 35.6 °F 76% 29.71 in 6.2 mi West 20.7 mph - N/A   Scattered Clouds
1:20 PM 44.6 °F 36.6 °F 35.6 °F 71% 29.71 in 6.2 mi West 19.6 mph - N/A   Scattered Clouds
1:50 PM 41.0 °F 31.4 °F 35.6 °F 81% 29.71 in 6.2 mi West 21.9 mph 33.4 mph N/A   Light Drizzle
2:20 PM 41.0 °F 32.2 °F 35.6 °F 81% 29.71 in 6.2 mi West 18.4 mph 29.9 mph N/A   Mostly Cloudy
2:50 PM 41.0 °F 33.5 °F 35.6 °F 81% 29.68 in 6.2 mi West 13.8 mph - N/A   Mostly Cloudy
3:20 PM 42.8 °F 34.8 °F 35.6 °F 76% 29.68 in 6.2 mi WSW 17.3 mph - N/A   Light Drizzle
3:50 PM 41.0 °F 33.5 °F 35.6 °F 81% 29.68 in 6.2 mi WSW 13.8 mph - N/A Rain Light Rain
4:20 PM 41.0 °F 33.9 °F 37.4 °F 87% 29.68 in 6.2 mi WSW 12.7 mph - N/A   Light Drizzle
4:50 PM 41.0 °F 32.8 °F 37.4 °F 87% 29.65 in 6.2 mi WSW 16.1 mph - N/A Rain Light Rain
5:20 PM 39.2 °F 32.0 °F 37.4 °F 93% 29.62 in 5.6 mi WSW 11.5 mph - N/A Rain Rain
5:50 PM 39.2 °F 35.9 °F 37.4 °F 93% 29.62 in 4.3 mi West 4.6 mph - N/A Rain Rain
6:20 PM 39.2 °F - 37.4 °F 93% 29.59 in 6.2 mi Calm Calm - N/A Rain Light Rain
6:50 PM 42.8 °F 35.8 °F 41.0 °F 93% 29.56 in 5.0 mi WSW 13.8 mph - N/A Rain Rain
7:20 PM 42.8 °F 36.6 °F 39.2 °F 87% 29.56 in 6.2 mi West 11.5 mph - N/A Rain Light Rain
7:50 PM 44.6 °F 38.4 °F 41.0 °F 87% 29.53 in 5.6 mi WSW 12.7 mph - N/A Rain Light Rain
8:20 PM 44.6 °F 36.1 °F 41.0 °F 87% 29.53 in 5.0 mi WSW 21.9 mph 33.4 mph N/A Rain Light Rain
8:50 PM 44.6 °F 36.1 °F 41.0 °F 87% 29.50 in 6.2 mi WSW 21.9 mph - N/A Rain Light Rain
9:20 PM 46.4 °F 37.9 °F 41.0 °F 81% 29.50 in 6.2 mi WSW 25.3 mph 38.0 mph N/A Rain Light Rain
9:50 PM 46.4 °F 38.1 °F 41.0 °F 81% 29.47 in 3.7 mi WSW 24.2 mph 38.0 mph N/A Rain Light Rain
10:20 PM 46.4 °F 37.7 °F 41.0 °F 81% 29.47 in 6.2 mi WSW 26.5 mph 39.1 mph N/A Rain Light Rain
10:50 PM 46.4 °F 37.9 °F 41.0 °F 81% 29.47 in 5.0 mi WSW 25.3 mph - N/A Rain Light Rain
11:20 PM 46.4 °F 37.9 °F 41.0 °F 81% 29.47 in 4.3 mi West 25.3 mph 38.0 mph N/A Rain Light Rain
11:50 PM 46.4 °F 38.1 °F 41.0 °F 81% 29.44 in 4.3 mi WSW 24.2 mph 39.1 mph N/A Rain Rain